Regional Weather Roundup
Issued by NWS Charleston, SC

Current Version | Previous Version | Text Only | Print | Product List | Glossary Off
Versions: 1 2 3 4 5 6 7 8 9 10 11 12 13 14 15 16 17 18 19 20 21 22 23 24 25 26 27 28 29 30 31 32 33 34 35 36 37 38 39 40 41 42 43 44 45 46 47 48 49 50

307
ASUS42 KCHS 191812
RWRCHS

REGIONAL WEATHER ROUNDUP
NATIONAL WEATHER SERVICE CHARLESTON SC
100 PM EST SUN FEB 19 2017

NOTE: "FAIR" INDICATES FEW OR NO CLOUDS BELOW 12,000 FEET WITH NO
SIGNIFICANT WEATHER AND/OR OBSTRUCTIONS TO VISIBILITY.

NOT ALL STATIONS ARE QUALITY CONTROLLED. USE DATA WITH CAUTION...
ESPECIALLY DEWPOINT OBSERVATIONS.

SCZ027-030-031-034>040-042>050-191900-
...SOUTHEAST SOUTH CAROLINA...

CITY           SKY/WX    TMP DP  RH WIND       PRES   REMARKS
N CHARLESTON   MOSUNNY   74  48  39 NW9G22    29.99F
6HR MIN TEMP:  49; 6HR MAX TEMP:  74;

WATERFRONT PRK   N/A     70  53  54 NW7G15    29.99F
MOUNT PLEASANT FAIR      72  54  53 NW10      30.00F
JOHNS ISLAND   FAIR      73  52  46 NW10G18   30.00F
PINOPOLIS        N/A     61  54  77 NW7       29.93F
MONCKS CORNER  FAIR      68  48  49 N6        30.00F
SUMMERVILLE    FAIR      70  50  49 N9        30.01F
BEAUFORT MCAS  SUNNY     75  52  44 N13       30.01F
6HR MIN TEMP:  49; 6HR MAX TEMP:  75;

BEAUFORT ARPT  FAIR      72  52  49 NW13      30.01F
HILTON HEAD IS MOSUNNY   75  54  46 SW12      30.02
WALTERBORO     PTCLDY    72  50  46 NW6G17    30.02F
ALLENDALE      FAIR      72  50  46 VRB7G17   30.01F

...SOUTHERN MIDLANDS AND PEE DEE...

CITY           SKY/WX    TMP DP  RH WIND       PRES   REMARKS
GEORGETOWN     FAIR      70  48  46 NW7       30.00F
KINGSTREE      FAIR      68  46  45 W10G20    30.01F
ORANGEBURG     SUNNY     71  48  43 N10       30.02F
6HR MIN TEMP:  50; 6HR MAX TEMP:  71;

BARNWELL       FAIR      72  50  46 NW12      30.02F
AIKEN          FAIR      68  48  49 W10G17    30.06F
MANNING        FAIR      68  46  45 MISG      30.02F
COLUMBIA       MOSUNNY   69  48  47 NW10G18   30.02F
6HR MIN TEMP:  46; 6HR MAX TEMP:  70;

SUMTER         SUNNY     69  47  43 NW12      29.99F
6HR MIN TEMP:  50; 6HR MAX TEMP:  69;

FLORENCE       SUNNY     68  48  48 VRB6      30.00F
6HR MIN TEMP:  50; 6HR MAX TEMP:  68;

MYRTLE BEACH   SUNNY     68  48  49 W10       29.99F
N MYRTLE BEACH SUNNY     69  48  47 NW9       29.96F
6HR MIN TEMP:  48; 6HR MAX TEMP:  70;


$$

GAZ063-065-086>088-099>101-113>116-118-119-134>141-150-191900-
...SOUTHEAST GEORGIA...

CITY           SKY/WX    TMP DP  RH WIND       PRES   REMARKS
SAVANNAH ARPT  MOSUNNY   75  52  44 NW10      30.03F
6HR MIN TEMP:  47; 6HR MAX TEMP:  75;

HUNTER AAF     MOSUNNY   75  57  53 W14G22    30.00F
6HR MIN TEMP:  47; 6HR MAX TEMP:  75;

FORT STEWART   PTSUNNY   74  55  50 NW10      30.01F
6HR MIN TEMP:  46; 6HR MAX TEMP:  75;

STATESBORO     PTSUNNY   74  57  54 NW13      30.03F
SYLVANIA       PTCLDY   N/A N/A N/A NW13      30.04F
CLAXTON        MOCLDY    74  59  59 W16       30.04F

...CSRA...CENTRAL AND FAR SOUTHEAST GEORGIA...

CITY           SKY/WX    TMP DP  RH WIND       PRES   REMARKS
THOMSON        MOSUNNY   72  55  55 W10G20    30.09F
AUGUSTA-BUSH   SUNNY     75  48  38 NW16      30.02F
6HR MIN TEMP:  45; 6HR MAX TEMP:  75;

AUGUSTA-DANIEL MOSUNNY   72  49  44 NW8       30.04F
SWAINSBORO     FAIR      70  54  56 N8        30.05F
VIDALIA        SUNNY     73  59  60 NW9G17    30.04F
EASTMAN        FAIR      73  46  38 N6        30.08F
HAZLEHURST     FAIR      75  59  57 SW3       30.03F
ALMA           MOSUNNY   74  58  57 W12       30.04F
6HR MIN TEMP:  57; 6HR MAX TEMP:  74;

WAYCROSS       PTSUNNY   78  61  55 NW8G17    30.05F
JESUP          FAIR      73  54  49 NW9       30.04F
BAXLEY         FAIR      73  61  64 NW10      30.04F
BRUNSWICK      MOSUNNY   73  59  60 W13       30.04F
SAINT SIMONS   MOSUNNY   73  55  53 NW10      30.03F
6HR MIN TEMP:  58; 6HR MAX TEMP:  73;


$$

SCZ027-028-034-036>038-045-046-048>050-GAZ119-141-191900-
...LAKE AND SUPPLEMENTAL COASTAL OBSERVATIONS...

STATION/POSITION TIME  TEMP    WIND        PRES    WAVE   SWELL
                       AIR SEA DIR/SP/G            HT/PER HT/PER/DIR
                 (UTC) (F)     (DEG/KT/KT) (MB)    (FT/S) (FT/S/D)
WINYAH BAY       1645   65     320/  6     1016.0
LAKE MURRAY      1720   59     160/  5/  7 1016.9
ACE BASIN NERRS  NOT AVBL
FORT PULASKI     1748   68 59  310/ 13/ 16 1016.8F
SAPELO ISLAND    1700   70     290/  6     1018.0

$$

ANZ835-935-AMZ111-154-330-350-352-354-370-450-454-472-191900-
...C-MAN AND BUOY OBSERVATIONS...

STATION/POSITION TIME  TEMP    WIND        PRES    WAVE   SWELL
                       AIR SEA DIR/SP/G            HT/PER HT/PER/DIR
                 (UTC) (F)     (DEG/KT/KT) (MB)    (FT/S) (FT/S/D)
BUOY 41004       1650   61 68  280/ 12/ 14 1016.2    2/ 6   2/170/ 6
BUOY 41008       1650   61 62  260/  4/  6 1017.7    1/ 5   2/140/ 5
FOLLY BEACH CMAN 1700   70     300/  6/ 12 1016.9F
CAPERS NEARSHORE 1708   61 59  220/  6/  8 1016.1F
FRIPP NEARSHORE  1708   63 60  270/  4/  8 1016.6F


STATION/POSITION TIME  TEMP    WIND        PRES    WAVE   SWELL
                       AIR SEA DIR/SP/G            HT/PER HT/PER/DIR
                 (UTC) (F)     (DEG/KT/KT) (MB)    (FT/S) (FT/S/D)
5E ST. MARYS GA  1730      64                N/A     1/ 9
FRYING PAN BUOY  1750   59 65  270/ 14/ 16 1014.3F   3/ 6   2/120/ 9
BUOY 41025       1750   59 67  260/ 10/ 12 1012.8F   2/ 7   2/180/ 7
CAPE LOOKOUT NC  1700   58     250/ 12/ 14 1013.7F
BUOY 41002       1750   66 71  230/ 14/ 17 1013.3F   5/ 6   3/210/ 7
BUOY 41010       NOT AVBL
ST AUGUSTINE FL  1800   65 67   20/ 11/ 12 1018.7F


$$




USA.gov is the U.S. government's official web portal to all federal, state and local government web resources and services.